Canon City Fremont County, CO

12:37 PM MDT on September 26, 2017 (GMT -0600)
Canon City Fremont County

Weather History for K1V6 - December, 2013

Change the Weather History Date:

Friday, December 20, 2013

  Actual Average (KFCS) Record (KFCS)
Temperature  
Mean Temperature 28 °F -  
Max Temperature 32 °F 43 °F 67 °F (1981)
Min Temperature 23 °F 19 °F -1 °F (1983)
Degree Days  
Heating Degree Days 38    
Moisture  
Dew Point 25 °F    
Average Humidity 85    
Maximum Humidity 100    
Minimum Humidity 75    
Precipitation  
Precipitation 0.00 in - - ()
Sea Level Pressure  
Sea Level Pressure 29.72 in    
Wind  
Wind Speed 3 mph (East)    
Max Wind Speed 10 mph    
Max Gust Speed -    
Visibility 9 miles    
Events      
Averages and records for this station are not official NWS values.
T = Trace of Precipitation, MM = Missing Value Source: NWS Daily Summary

Daily Weather History Graph

Daily Weather History Graph

Search for Another Location

Airport or City:

Trip Planner

Search our weather history database for the weather conditions in past years. The results will help you decide how hot, cold, wet, or windy it might be!

Date:

Astronomy

Dec. 20, 2013 Rise Set
Actual Time 7:13 AM MST 4:42 PM MST
Civil Twilight 6:43 AM MST 5:12 PM MST
Nautical Twilight 6:10 AM MST 5:45 PM MST
Astronomical Twilight 5:38 AM MST 6:18 PM MST
Moon 8:03 PM MST (12/20) 9:11 AM MST (12/20)
Length of Visible Light 10h 28m
Length of Day
9h 29m
Waning Gibbous, 90% of the Moon is Illuminated
Dec 20
Waning Gibbous
Dec 25
Last Quarter
Jan 1
New
Jan 7
First Quarter
Jan 15
Full

Hourly Weather History & Observations

Time (MST) Temp. Windchill Dew Point Humidity Pressure Visibility Wind Dir Wind Speed Gust Speed Precip Events Conditions
12:15 AM 30.2 °F 26.7 °F 26.6 °F 86% 29.82 in 10.0 mi ESE 3.5 mph - N/A   Overcast
12:35 AM 30.2 °F - 26.6 °F 86% 29.82 in 10.0 mi Calm Calm - N/A   Overcast
12:55 AM 30.2 °F 26.7 °F 26.6 °F 86% 29.82 in 10.0 mi SE 3.5 mph - N/A   Overcast
1:15 AM 30.2 °F - 26.6 °F 86% 29.82 in 10.0 mi Calm Calm - N/A   Overcast
1:35 AM 30.2 °F 25.4 °F 26.6 °F 86% 29.82 in 10.0 mi East 4.6 mph - N/A   Overcast
1:55 AM 30.2 °F 24.3 °F 26.6 °F 86% 29.82 in 10.0 mi ESE 5.8 mph - N/A   Overcast
2:15 AM 30.2 °F 24.3 °F 26.6 °F 86% 29.83 in 10.0 mi East 5.8 mph - N/A   Overcast
2:35 AM 30.2 °F 25.4 °F 26.6 °F 86% 29.82 in 10.0 mi East 4.6 mph - N/A   Overcast
2:55 AM 30.2 °F 25.4 °F 26.6 °F 86% 29.81 in 10.0 mi East 4.6 mph - N/A   Overcast
3:15 AM 30.2 °F - 26.6 °F 86% 29.81 in 10.0 mi Calm Calm - N/A   Overcast
3:35 AM 30.2 °F 24.3 °F 26.6 °F 86% 29.81 in 10.0 mi East 5.8 mph - N/A   Overcast
3:55 AM 30.2 °F 26.7 °F 26.6 °F 86% 29.80 in 10.0 mi East 3.5 mph - N/A   Overcast
4:15 AM 30.2 °F 25.4 °F 26.6 °F 86% 29.79 in 10.0 mi East 4.6 mph - N/A   Overcast
4:35 AM 30.2 °F 24.3 °F 26.6 °F 86% 29.79 in 10.0 mi East 5.8 mph - N/A   Overcast
4:55 AM 30.2 °F 21.3 °F 26.6 °F 86% 29.79 in 10.0 mi East 10.4 mph - N/A   Overcast
5:15 AM 26.6 °F 16.8 °F 24.8 °F 93% 29.79 in 7.0 mi East 10.4 mph - N/A   Overcast
5:35 AM 26.6 °F 17.5 °F 24.8 °F 93% 29.79 in 5.0 mi East 9.2 mph - N/A   Overcast
5:55 AM 26.6 °F 19.1 °F 24.8 °F 93% 29.78 in 4.0 mi East 6.9 mph - N/A   Overcast
6:15 AM 26.6 °F 20.0 °F 23.0 °F 86% 29.77 in 3.0 mi ENE 5.8 mph - N/A   Overcast
6:25 AM 26.6 °F 21.2 °F 24.8 °F 93% 29.77 in 3.0 mi ENE 4.6 mph - N/A   Overcast
2:15 PM 32.0 °F - 26.6 °F 80% 29.65 in 10.0 mi Calm Calm - N/A   Overcast
2:35 PM 32.0 °F - 24.8 °F 75% 29.65 in 10.0 mi Calm Calm - N/A   Overcast
2:55 PM 32.0 °F - 26.6 °F 80% 29.65 in 10.0 mi Calm Calm - N/A   Overcast
3:15 PM 32.0 °F - 26.6 °F 80% 29.64 in 10.0 mi Calm Calm - N/A   Scattered Clouds
3:35 PM 32.0 °F - 26.6 °F 80% 29.64 in 10.0 mi Calm Calm - N/A   Scattered Clouds
3:55 PM 32.0 °F - 26.6 °F 80% 29.64 in 10.0 mi Calm Calm - N/A   Clear
4:15 PM 30.2 °F - 24.8 °F 80% 29.63 in 10.0 mi Calm Calm - N/A   Clear
4:35 PM 30.2 °F - 24.8 °F 80% 29.63 in 10.0 mi Calm Calm - N/A   Clear
4:55 PM 30.2 °F - 24.8 °F 80% 29.62 in 10.0 mi Calm Calm - N/A   Clear
5:15 PM 28.4 °F 23.3 °F 23.0 °F 80% 29.63 in 10.0 mi East 4.6 mph - N/A   Clear
5:35 PM 28.4 °F 23.3 °F 23.0 °F 80% 29.63 in 10.0 mi East 4.6 mph - N/A   Clear
5:55 PM 28.4 °F 23.3 °F 23.0 °F 80% 29.65 in 10.0 mi East 4.6 mph - N/A   Clear
6:15 PM 28.4 °F - 23.0 °F 80% 29.66 in 10.0 mi Calm Calm - N/A   Clear
6:35 PM 26.6 °F 22.6 °F 23.0 °F 86% 29.66 in 10.0 mi NNE 3.5 mph - N/A   Scattered Clouds
6:55 PM 26.6 °F 21.2 °F 23.0 °F 86% 29.68 in 10.0 mi NNE 4.6 mph - N/A   Mostly Cloudy
7:15 PM 26.6 °F 21.2 °F 23.0 °F 86% 29.68 in 10.0 mi NNE 4.6 mph - N/A   Scattered Clouds
7:35 PM 26.6 °F - 21.2 °F 80% 29.69 in 10.0 mi Calm Calm - N/A   Scattered Clouds
7:55 PM 24.8 °F - 23.0 °F 93% 29.69 in 10.0 mi Calm Calm - N/A   Overcast
8:15 PM 26.6 °F - 23.0 °F 86% 29.70 in 10.0 mi Calm Calm - N/A   Overcast
8:35 PM 28.4 °F - 24.8 °F 86% 29.71 in 10.0 mi Calm Calm - N/A   Overcast
8:55 PM 28.4 °F 24.6 °F 24.8 °F 86% 29.70 in 10.0 mi West 3.5 mph - N/A   Overcast
9:15 PM 28.4 °F 24.6 °F 24.8 °F 86% 29.70 in 10.0 mi West 3.5 mph - N/A   Overcast
9:35 PM 28.4 °F 23.3 °F 24.8 °F 86% 29.68 in 10.0 mi West 4.6 mph - N/A   Overcast
9:55 PM 28.4 °F 23.3 °F 24.8 °F 86% 29.67 in 10.0 mi West 4.6 mph - N/A   Overcast
10:15 PM 28.4 °F 23.3 °F 24.8 °F 86% 29.66 in 10.0 mi WSW 4.6 mph - N/A   Overcast
10:35 PM 28.4 °F 22.2 °F 23.0 °F 80% 29.65 in 10.0 mi SSE 5.8 mph - N/A   Mostly Cloudy
10:55 PM 26.6 °F 19.1 °F 23.0 °F 86% 29.64 in 7.0 mi ESE 6.9 mph - N/A   Clear
11:15 PM 23.0 °F - 23.0 °F 100% 29.64 in 7.0 mi Calm Calm - N/A   Clear
11:35 PM 23.0 °F 15.8 °F 23.0 °F 100% 29.64 in 7.0 mi East 5.8 mph - N/A   Scattered Clouds
11:55 PM 26.6 °F 22.6 °F 24.8 °F 93% 29.64 in 7.0 mi ENE 3.5 mph - N/A   Mostly Cloudy